owner,sensor,date,latitude,longitude,vertical_datum,wind_speed,wind_to_direction,wind_speed_of_gust,qcFlag 
COMPS,ioos:station:USF.COMPS:TAR:1,2011-11-01T00:00:00Z,28.1560,-82.7580,7.0,2.6,350.0,,'1111122,1111122,1111122' 
COMPS,ioos:station:USF.COMPS:TAR:1,2011-11-01T01:00:00Z,28.1560,-82.7580,7.0,2.1,350.0,,'1111122,1111122,1111122' 
COMPS,ioos:station:USF.COMPS:TAR:1,2011-11-01T02:00:00Z,28.1560,-82.7580,7.0,1.5,20.0,,'1111122,1111122,1111122' 
COMPS,ioos:station:USF.COMPS:TAR:1,2011-11-01T05:00:00Z,28.1560,-82.7580,7.0,2.1,20.0,,'1111122,1111122,1111122' 
COMPS,ioos:station:USF.COMPS:TAR:1,2011-11-01T08:00:00Z,28.1560,-82.7580,7.0,2.6,30.0,,'1111122,1111122,1111122' 
COMPS,ioos:station:USF.COMPS:TAR:1,2011-11-01T09:00:00Z,28.1560,-82.7580,7.0,2.6,30.0,,'1111122,1111122,1111122' 
COMPS,ioos:station:USF.COMPS:TAR:1,2011-11-01T10:00:00Z,28.1560,-82.7580,7.0,2.6,20.0,,'1111122,1111122,1111122' 
COMPS,ioos:station:USF.COMPS:TAR:1,2011-11-01T13:00:00Z,28.1560,-82.7580,7.0,4.6,40.0,,'1111122,1111122,1111122' 
COMPS,ioos:station:USF.COMPS:TAR:1,2011-11-01T14:00:00Z,28.1560,-82.7580,7.0,5.1,40.0,,'1111122,1111122,1111122' 
COMPS,ioos:station:USF.COMPS:TAR:1,2011-11-01T15:00:00Z,28.1560,-82.7580,7.0,4.6,40.0,,'1111122,1111122,1111122' 
COMPS,ioos:station:USF.COMPS:TAR:1,2011-11-01T16:00:00Z,28.1560,-82.7580,7.0,4.6,30.0,,'1111122,1111122,1111122' 
COMPS,ioos:station:USF.COMPS:TAR:1,2011-11-01T17:00:00Z,28.1560,-82.7580,7.0,3.1,40.0,,'1111122,1111122,1111122' 
COMPS,ioos:station:USF.COMPS:TAR:1,2011-11-01T20:00:00Z,28.1560,-82.7580,7.0,4.1,30.0,,'1111122,1111122,1111122' 
COMPS,ioos:station:USF.COMPS:TAR:1,2011-11-01T21:00:00Z,28.1560,-82.7580,7.0,2.6,50.0,,'1111122,1111122,1111122' 
COMPS,ioos:station:USF.COMPS:TAR:1,2011-11-01T22:00:00Z,28.1560,-82.7580,7.0,4.1,40.0,,'1111122,1111122,1111122' 
COMPS,ioos:station:USF.COMPS:TAR:1,2011-11-02T01:00:00Z,28.1560,-82.7580,7.0,3.1,40.0,,'1111122,1111122,1111122' 
COMPS,ioos:station:USF.COMPS:TAR:1,2011-11-02T08:00:00Z,28.1560,-82.7580,7.0,2.6,40.0,,'1111122,1111122,1111122' 
COMPS,ioos:station:USF.COMPS:TAR:1,2011-11-02T10:00:00Z,28.1560,-82.7580,7.0,3.1,40.0,,'1111122,1111122,1111122' 
COMPS,ioos:station:USF.COMPS:TAR:1,2011-11-02T11:00:00Z,28.1560,-82.7580,7.0,2.1,40.0,,'1111122,1111122,1111122' 
COMPS,ioos:station:USF.COMPS:TAR:1,2011-11-02T13:00:00Z,28.1560,-82.7580,7.0,2.6,40.0,,'1111122,1111122,1111122' 
COMPS,ioos:station:USF.COMPS:TAR:1,2011-11-02T14:00:00Z,28.1560,-82.7580,7.0,1.5,50.0,,'1111122,1111122,1111122' 
COMPS,ioos:station:USF.COMPS:TAR:1,2011-11-02T15:00:00Z,28.1560,-82.7580,7.0,2.1,40.0,,'1111122,1111122,1111122' 
COMPS,ioos:station:USF.COMPS:TAR:1,2011-11-02T16:00:00Z,28.1560,-82.7580,7.0,2.6,70.0,,'1111122,1111122,1111122' 
COMPS,ioos:station:USF.COMPS:TAR:1,2011-11-02T18:00:00Z,28.1560,-82.7580,7.0,2.1,60.0,,'1111122,1111122,1111122' 
COMPS,ioos:station:USF.COMPS:TAR:1,2011-11-02T19:00:00Z,28.1560,-82.7580,7.0,2.6,50.0,,'1111122,1111122,1111122' 
COMPS,ioos:station:USF.COMPS:TAR:1,2011-11-02T20:00:00Z,28.1560,-82.7580,7.0,2.1,50.0,,'1111122,1111122,1111122' 
COMPS,ioos:station:USF.COMPS:TAR:1,2011-11-02T21:00:00Z,28.1560,-82.7580,7.0,2.1,50.0,,'1111122,1111122,1111122' 
COMPS,ioos:station:USF.COMPS:TAR:1,2011-11-03T00:00:00Z,28.1560,-82.7580,7.0,1.0,40.0,,'1111122,1111122,1111122' 
COMPS,ioos:station:USF.COMPS:TAR:1,2011-11-03T03:00:00Z,28.1560,-82.7580,7.0,1.0,40.0,,'1111122,1111122,1111122' 
COMPS,ioos:station:USF.COMPS:TAR:1,2011-11-03T06:00:00Z,28.1560,-82.7580,7.0,2.1,30.0,,'1111122,1111122,1111122' 
COMPS,ioos:station:USF.COMPS:TAR:1,2011-11-03T07:00:00Z,28.1560,-82.7580,7.0,2.1,40.0,,'1111122,1111122,1111122' 
COMPS,ioos:station:USF.COMPS:TAR:1,2011-11-03T10:00:00Z,28.1560,-82.7580,7.0,1.5,40.0,,'1111122,1111122,1111122' 
COMPS,ioos:station:USF.COMPS:TAR:1,2011-11-03T12:00:00Z,28.1560,-82.7580,7.0,2.1,40.0,,'1111122,1111122,1111122' 
COMPS,ioos:station:USF.COMPS:TAR:1,2011-11-03T13:00:00Z,28.1560,-82.7580,7.0,2.1,30.0,,'1111122,1111122,1111122' 
COMPS,ioos:station:USF.COMPS:TAR:1,2011-11-03T15:00:00Z,28.1560,-82.7580,7.0,2.1,40.0,,'1111122,1111122,1111122' 
COMPS,ioos:station:USF.COMPS:TAR:1,2011-11-03T16:00:00Z,28.1560,-82.7580,7.0,1.0,130.0,,'1111122,1111122,1111122' 
COMPS,ioos:station:USF.COMPS:TAR:1,2011-11-03T17:00:00Z,28.1560,-82.7580,7.0,2.1,300.0,,'1111122,1111122,1111122' 
COMPS,ioos:station:USF.COMPS:TAR:1,2011-11-03T18:00:00Z,28.1560,-82.7580,7.0,2.1,290.0,,'1111122,1111122,1111122' 
COMPS,ioos:station:USF.COMPS:TAR:1,2011-11-03T19:00:00Z,28.1560,-82.7580,7.0,2.1,280.0,,'1111122,1111122,1111122' 
COMPS,ioos:station:USF.COMPS:TAR:1,2011-11-03T20:00:00Z,28.1560,-82.7580,7.0,2.1,290.0,,'1111122,1111122,1111122' 
COMPS,ioos:station:USF.COMPS:TAR:1,2011-11-03T21:00:00Z,28.1560,-82.7580,7.0,2.1,290.0,,'1111122,1111122,1111122' 
COMPS,ioos:station:USF.COMPS:TAR:1,2011-11-03T23:00:00Z,28.1560,-82.7580,7.0,0.5,330.0,,'1111122,1111122,1111122' 
COMPS,ioos:station:USF.COMPS:TAR:1,2011-11-04T04:00:00Z,28.1560,-82.7580,7.0,1.0,210.0,,'1111122,1111122,1111122' 
COMPS,ioos:station:USF.COMPS:TAR:1,2011-11-04T06:00:00Z,28.1560,-82.7580,7.0,2.1,170.0,,'1111122,1111122,1111122' 
COMPS,ioos:station:USF.COMPS:TAR:1,2011-11-04T10:00:00Z,28.1560,-82.7580,7.0,3.1,220.0,,'1111122,1111122,1111122' 
COMPS,ioos:station:USF.COMPS:TAR:1,2011-11-04T12:00:00Z,28.1560,-82.7580,7.0,4.1,330.0,,'1111122,1111122,1111122' 
COMPS,ioos:station:USF.COMPS:TAR:1,2011-11-04T13:00:00Z,28.1560,-82.7580,7.0,4.6,320.0,,'1111122,1111122,1111122' 
COMPS,ioos:station:USF.COMPS:TAR:1,2011-11-04T14:00:00Z,28.1560,-82.7580,7.0,4.6,320.0,,'1111122,1111122,1111122' 
COMPS,ioos:station:USF.COMPS:TAR:1,2011-11-04T15:00:00Z,28.1560,-82.7580,7.0,4.1,320.0,,'1111122,1111122,1111122' 
COMPS,ioos:station:USF.COMPS:TAR:1,2011-11-04T16:00:00Z,28.1560,-82.7580,7.0,4.1,330.0,,'1111122,1111122,1111122' 
COMPS,ioos:station:USF.COMPS:TAR:1,2011-11-04T17:00:00Z,28.1560,-82.7580,7.0,4.6,330.0,,'1111122,1111122,1111122' 
COMPS,ioos:station:USF.COMPS:TAR:1,2011-11-04T18:00:00Z,28.1560,-82.7580,7.0,4.6,320.0,,'1111122,1111122,1111122' 
COMPS,ioos:station:USF.COMPS:TAR:1,2011-11-04T19:00:00Z,28.1560,-82.7580,7.0,4.6,320.0,,'1111122,1111122,1111122' 
COMPS,ioos:station:USF.COMPS:TAR:1,2011-11-04T20:00:00Z,28.1560,-82.7580,7.0,4.1,330.0,,'1111122,1111122,1111122' 
COMPS,ioos:station:USF.COMPS:TAR:1,2011-11-04T21:00:00Z,28.1560,-82.7580,7.0,3.6,330.0,,'1111122,1111122,1111122' 
COMPS,ioos:station:USF.COMPS:TAR:1,2011-11-04T22:00:00Z,28.1560,-82.7580,7.0,4.1,340.0,,'1111122,1111122,1111122' 
COMPS,ioos:station:USF.COMPS:TAR:1,2011-11-05T00:00:00Z,28.1560,-82.7580,7.0,3.6,340.0,,'1111122,1111122,1111122' 
COMPS,ioos:station:USF.COMPS:TAR:1,2011-11-05T01:00:00Z,28.1560,-82.7580,7.0,3.6,340.0,,'1111122,1111122,1111122' 
COMPS,ioos:station:USF.COMPS:TAR:1,2011-11-05T02:00:00Z,28.1560,-82.7580,7.0,4.1,360.0,,'1111122,1111122,1111122' 
COMPS,ioos:station:USF.COMPS:TAR:1,2011-11-05T03:00:00Z,28.1560,-82.7580,7.0,4.1,360.0,,'1111122,1111122,1111122' 
COMPS,ioos:station:USF.COMPS:TAR:1,2011-11-05T04:00:00Z,28.1560,-82.7580,7.0,4.1,360.0,,'1111122,1111122,1111122' 
COMPS,ioos:station:USF.COMPS:TAR:1,2011-11-05T05:00:00Z,28.1560,-82.7580,7.0,2.6,10.0,,'1111122,1111122,1111122' 
COMPS,ioos:station:USF.COMPS:TAR:1,2011-11-05T06:00:00Z,28.1560,-82.7580,7.0,2.1,10.0,,'1111122,1111122,1111122' 
COMPS,ioos:station:USF.COMPS:TAR:1,2011-11-05T09:00:00Z,28.1560,-82.7580,7.0,3.1,20.0,,'1111122,1111122,1111122' 
COMPS,ioos:station:USF.COMPS:TAR:1,2011-11-05T12:00:00Z,28.1560,-82.7580,7.0,2.6,20.0,,'1111122,1111122,1111122' 
COMPS,ioos:station:USF.COMPS:TAR:1,2011-11-05T13:00:00Z,28.1560,-82.7580,7.0,3.1,20.0,,'1111122,1111122,1111122' 
COMPS,ioos:station:USF.COMPS:TAR:1,2011-11-05T15:00:00Z,28.1560,-82.7580,7.0,3.1,340.0,,'1111122,1111122,1111122' 
COMPS,ioos:station:USF.COMPS:TAR:1,2011-11-05T16:00:00Z,28.1560,-82.7580,7.0,3.6,20.0,,'1111122,1111122,1111122' 
COMPS,ioos:station:USF.COMPS:TAR:1,2011-11-05T17:00:00Z,28.1560,-82.7580,7.0,4.1,30.0,,'1111122,1111122,1111122' 
COMPS,ioos:station:USF.COMPS:TAR:1,2011-11-05T18:00:00Z,28.1560,-82.7580,7.0,4.1,350.0,,'1111122,1111122,1111122' 
COMPS,ioos:station:USF.COMPS:TAR:1,2011-11-05T19:00:00Z,28.1560,-82.7580,7.0,3.6,20.0,,'1111122,1111122,1111122' 
COMPS,ioos:station:USF.COMPS:TAR:1,2011-11-05T20:00:00Z,28.1560,-82.7580,7.0,3.1,40.0,,'1111122,1111122,1111122' 
COMPS,ioos:station:USF.COMPS:TAR:1,2011-11-05T21:00:00Z,28.1560,-82.7580,7.0,3.6,40.0,,'1111122,1111122,1111122' 
COMPS,ioos:station:USF.COMPS:TAR:1,2011-11-05T22:00:00Z,28.1560,-82.7580,7.0,4.6,40.0,,'1111122,1111122,1111122' 
COMPS,ioos:station:USF.COMPS:TAR:1,2011-11-05T23:00:00Z,28.1560,-82.7580,7.0,4.1,20.0,,'1111122,1111122,1111122' 
COMPS,ioos:station:USF.COMPS:TAR:1,2011-11-06T00:00:00Z,28.1560,-82.7580,7.0,4.6,40.0,,'1111122,1111122,1111122' 
COMPS,ioos:station:USF.COMPS:TAR:1,2011-11-06T01:00:00Z,28.1560,-82.7580,7.0,3.6,30.0,,'1111122,1111122,1111122' 
COMPS,ioos:station:USF.COMPS:TAR:1,2011-11-06T02:00:00Z,28.1560,-82.7580,7.0,4.6,30.0,,'1111122,1111122,1111122' 
COMPS,ioos:station:USF.COMPS:TAR:1,2011-11-06T03:00:00Z,28.1560,-82.7580,7.0,4.6,20.0,,'1111122,1111122,1111122' 
COMPS,ioos:station:USF.COMPS:TAR:1,2011-11-06T04:00:00Z,28.1560,-82.7580,7.0,3.1,20.0,,'1111122,1111122,1111122' 
COMPS,ioos:station:USF.COMPS:TAR:1,2011-11-06T05:00:00Z,28.1560,-82.7580,7.0,1.5,20.0,,'1111122,1111122,1111122' 
COMPS,ioos:station:USF.COMPS:TAR:1,2011-11-06T06:00:00Z,28.1560,-82.7580,7.0,2.6,10.0,,'1111122,1111122,1111122' 
COMPS,ioos:station:USF.COMPS:TAR:1,2011-11-06T08:00:00Z,28.1560,-82.7580,7.0,3.6,20.0,,'1111122,1111122,1111122' 
COMPS,ioos:station:USF.COMPS:TAR:1,2011-11-06T09:00:00Z,28.1560,-82.7580,7.0,3.1,30.0,,'1111122,1111122,1111122' 
COMPS,ioos:station:USF.COMPS:TAR:1,2011-11-06T10:00:00Z,28.1560,-82.7580,7.0,3.6,40.0,,'1111122,1111122,1111122' 
COMPS,ioos:station:USF.COMPS:TAR:1,2011-11-06T11:00:00Z,28.1560,-82.7580,7.0,4.1,40.0,,'1111122,1111122,1111122' 
COMPS,ioos:station:USF.COMPS:TAR:1,2011-11-06T12:00:00Z,28.1560,-82.7580,7.0,3.1,40.0,,'1111122,1111122,1111122' 
COMPS,ioos:station:USF.COMPS:TAR:1,2011-11-07T01:00:00Z,28.1560,-82.7580,7.0,3.6,40.0,,'1111122,1111122,1111122' 
COMPS,ioos:station:USF.COMPS:TAR:1,2011-11-07T02:00:00Z,28.1560,-82.7580,7.0,2.6,40.0,,'1111122,1111122,1111122' 
COMPS,ioos:station:USF.COMPS:TAR:1,2011-11-07T03:00:00Z,28.1560,-82.7580,7.0,3.6,30.0,,'1111122,1111122,1111122' 
COMPS,ioos:station:USF.COMPS:TAR:1,2011-11-07T04:00:00Z,28.1560,-82.7580,7.0,3.1,30.0,,'1111122,1111122,1111122' 
COMPS,ioos:station:USF.COMPS:TAR:1,2011-11-07T05:00:00Z,28.1560,-82.7580,7.0,2.1,20.0,,'1111122,1111122,1111122' 
COMPS,ioos:station:USF.COMPS:TAR:1,2011-11-07T06:00:00Z,28.1560,-82.7580,7.0,2.1,30.0,,'1111122,1111122,1111122' 
COMPS,ioos:station:USF.COMPS:TAR:1,2011-11-07T07:00:00Z,28.1560,-82.7580,7.0,2.6,40.0,,'1111122,1111122,1111122' 
COMPS,ioos:station:USF.COMPS:TAR:1,2011-11-07T08:00:00Z,28.1560,-82.7580,7.0,2.6,30.0,,'1111122,1111122,1111122' 
COMPS,ioos:station:USF.COMPS:TAR:1,2011-11-07T09:00:00Z,28.1560,-82.7580,7.0,3.6,40.0,,'1111122,1111122,1111122' 
COMPS,ioos:station:USF.COMPS:TAR:1,2011-11-07T10:00:00Z,28.1560,-82.7580,7.0,2.6,40.0,,'1111122,1111122,1111122' 
COMPS,ioos:station:USF.COMPS:TAR:1,2011-11-07T12:00:00Z,28.1560,-82.7580,7.0,3.1,40.0,,'1111122,1111122,1111122' 
COMPS,ioos:station:USF.COMPS:TAR:1,2011-11-07T13:00:00Z,28.1560,-82.7580,7.0,3.1,40.0,,'1111122,1111122,1111122' 
COMPS,ioos:station:USF.COMPS:TAR:1,2011-11-07T15:00:00Z,28.1560,-82.7580,7.0,3.6,40.0,,'1111122,1111122,1111122' 
COMPS,ioos:station:USF.COMPS:TAR:1,2011-11-07T17:00:00Z,28.1560,-82.7580,7.0,2.6,40.0,,'1111122,1111122,1111122' 
COMPS,ioos:station:USF.COMPS:TAR:1,2011-11-07T18:00:00Z,28.1560,-82.7580,7.0,3.6,50.0,,'1111122,1111122,1111122' 
COMPS,ioos:station:USF.COMPS:TAR:1,2011-11-07T19:00:00Z,28.1560,-82.7580,7.0,1.5,40.0,,'1111122,1111122,1111122' 
COMPS,ioos:station:USF.COMPS:TAR:1,2011-11-07T20:00:00Z,28.1560,-82.7580,7.0,2.1,50.0,,'1111122,1111122,1111122' 
COMPS,ioos:station:USF.COMPS:TAR:1,2011-11-07T21:00:00Z,28.1560,-82.7580,7.0,1.5,50.0,,'1111122,1111122,1111122' 
COMPS,ioos:station:USF.COMPS:TAR:1,2011-11-07T22:00:00Z,28.1560,-82.7580,7.0,2.6,40.0,,'1111122,1111122,1111122' 
COMPS,ioos:station:USF.COMPS:TAR:1,2011-11-07T23:00:00Z,28.1560,-82.7580,7.0,2.6,360.0,,'1111122,1111122,1111122' 
COMPS,ioos:station:USF.COMPS:TAR:1,2011-11-08T00:00:00Z,28.1560,-82.7580,7.0,0.5,10.0,,'1111122,1111122,1111122' 
COMPS,ioos:station:USF.COMPS:TAR:1,2011-11-08T02:00:00Z,28.1560,-82.7580,7.0,1.5,40.0,,'1111122,1111122,1111122' 
COMPS,ioos:station:USF.COMPS:TAR:1,2011-11-08T05:00:00Z,28.1560,-82.7580,7.0,2.6,30.0,,'1111122,1111122,1111122' 
COMPS,ioos:station:USF.COMPS:TAR:1,2011-11-08T14:00:00Z,28.1560,-82.7580,7.0,1.5,30.0,,'1111122,1111122,1111122' 
COMPS,ioos:station:USF.COMPS:TAR:1,2011-11-08T18:00:00Z,28.1560,-82.7580,7.0,4.1,340.0,,'1111122,1111122,1111122' 
COMPS,ioos:station:USF.COMPS:TAR:1,2011-11-08T19:00:00Z,28.1560,-82.7580,7.0,3.6,340.0,,'1111122,1111122,1111122' 
COMPS,ioos:station:USF.COMPS:TAR:1,2011-11-08T20:00:00Z,28.1560,-82.7580,7.0,2.6,320.0,,'1111122,1111122,1111122' 
COMPS,ioos:station:USF.COMPS:TAR:1,2011-11-08T21:00:00Z,28.1560,-82.7580,7.0,3.1,350.0,,'1111122,1111122,1111122' 
COMPS,ioos:station:USF.COMPS:TAR:1,2011-11-08T22:00:00Z,28.1560,-82.7580,7.0,3.6,360.0,,'1111122,1111122,1111122' 
COMPS,ioos:station:USF.COMPS:TAR:1,2011-11-08T23:00:00Z,28.1560,-82.7580,7.0,2.6,360.0,,'1111122,1111122,1111122' 
COMPS,ioos:station:USF.COMPS:TAR:1,2011-11-09T00:00:00Z,28.1560,-82.7580,7.0,0.5,20.0,,'1111122,1111122,1111122' 
COMPS,ioos:station:USF.COMPS:TAR:1,2011-11-09T01:00:00Z,28.1560,-82.7580,7.0,0.5,40.0,,'1111122,1111122,1111122' 
COMPS,ioos:station:USF.COMPS:TAR:1,2011-11-09T02:00:00Z,28.1560,-82.7580,7.0,0.5,40.0,,'1111122,1111122,1111122' 
COMPS,ioos:station:USF.COMPS:TAR:1,2011-11-09T03:00:00Z,28.1560,-82.7580,7.0,1.0,30.0,,'1111122,1111122,1111122' 
COMPS,ioos:station:USF.COMPS:TAR:1,2011-11-09T04:00:00Z,28.1560,-82.7580,7.0,0.5,20.0,,'1111122,1111122,1111122' 
COMPS,ioos:station:USF.COMPS:TAR:1,2011-11-09T05:00:00Z,28.1560,-82.7580,7.0,1.0,20.0,,'1111122,1111122,1111122' 
COMPS,ioos:station:USF.COMPS:TAR:1,2011-11-09T06:00:00Z,28.1560,-82.7580,7.0,1.5,40.0,,'1111122,1111122,1111122' 
COMPS,ioos:station:USF.COMPS:TAR:1,2011-11-09T07:00:00Z,28.1560,-82.7580,7.0,1.5,40.0,,'1111122,1111122,1111122' 
COMPS,ioos:station:USF.COMPS:TAR:1,2011-11-09T08:00:00Z,28.1560,-82.7580,7.0,0.5,360.0,,'1111122,1111122,1111122' 
COMPS,ioos:station:USF.COMPS:TAR:1,2011-11-09T09:00:00Z,28.1560,-82.7580,7.0,0.5,30.0,,'1111122,1111122,1111122' 
COMPS,ioos:station:USF.COMPS:TAR:1,2011-11-09T10:00:00Z,28.1560,-82.7580,7.0,1.0,340.0,,'1111122,1111122,1111122' 
COMPS,ioos:station:USF.COMPS:TAR:1,2011-11-09T11:00:00Z,28.1560,-82.7580,7.0,0.5,20.0,,'1111122,1111122,1111122' 
COMPS,ioos:station:USF.COMPS:TAR:1,2011-11-09T12:00:00Z,28.1560,-82.7580,7.0,1.0,20.0,,'1111122,1111122,1111122' 
COMPS,ioos:station:USF.COMPS:TAR:1,2011-11-09T13:00:00Z,28.1560,-82.7580,7.0,2.1,30.0,,'1111122,1111122,1111122' 
COMPS,ioos:station:USF.COMPS:TAR:1,2011-11-09T14:00:00Z,28.1560,-82.7580,7.0,2.6,30.0,,'1111122,1111122,1111122' 
COMPS,ioos:station:USF.COMPS:TAR:1,2011-11-09T15:00:00Z,28.1560,-82.7580,7.0,2.1,50.0,,'1111122,1111122,1111122' 
COMPS,ioos:station:USF.COMPS:TAR:1,2011-11-09T16:00:00Z,28.1560,-82.7580,7.0,2.1,40.0,,'1111122,1111122,1111122' 
COMPS,ioos:station:USF.COMPS:TAR:1,2011-11-09T17:00:00Z,28.1560,-82.7580,7.0,2.6,320.0,,'1111122,1111122,1111122' 
COMPS,ioos:station:USF.COMPS:TAR:1,2011-11-09T18:00:00Z,28.1560,-82.7580,7.0,3.1,340.0,,'1111122,1111122,1111122' 
COMPS,ioos:station:USF.COMPS:TAR:1,2011-11-09T19:00:00Z,28.1560,-82.7580,7.0,4.1,340.0,,'1111122,1111122,1111122' 
COMPS,ioos:station:USF.COMPS:TAR:1,2011-11-09T20:00:00Z,28.1560,-82.7580,7.0,3.6,320.0,,'1111122,1111122,1111122' 
COMPS,ioos:station:USF.COMPS:TAR:1,2011-11-09T21:00:00Z,28.1560,-82.7580,7.0,3.6,320.0,,'1111122,1111122,1111122' 
COMPS,ioos:station:USF.COMPS:TAR:1,2011-11-09T22:00:00Z,28.1560,-82.7580,7.0,2.1,330.0,,'1111122,1111122,1111122' 
COMPS,ioos:station:USF.COMPS:TAR:1,2011-11-09T23:00:00Z,28.1560,-82.7580,7.0,1.5,340.0,,'1111122,1111122,1111122' 
COMPS,ioos:station:USF.COMPS:TAR:1,2011-11-10T00:00:00Z,28.1560,-82.7580,7.0,1.5,360.0,,'1111122,1111122,1111122' 
COMPS,ioos:station:USF.COMPS:TAR:1,2011-11-10T01:00:00Z,28.1560,-82.7580,7.0,1.5,350.0,,'1111122,1111122,1111122' 
COMPS,ioos:station:USF.COMPS:TAR:1,2011-11-10T02:00:00Z,28.1560,-82.7580,7.0,2.1,340.0,,'1111122,1111122,1111122' 
COMPS,ioos:station:USF.COMPS:TAR:1,2011-11-10T03:00:00Z,28.1560,-82.7580,7.0,1.5,340.0,,'1111122,1111122,1111122' 
COMPS,ioos:station:USF.COMPS:TAR:1,2011-11-10T04:00:00Z,28.1560,-82.7580,7.0,1.5,350.0,,'1111122,1111122,1111122' 
COMPS,ioos:station:USF.COMPS:TAR:1,2011-11-10T05:00:00Z,28.1560,-82.7580,7.0,1.5,350.0,,'1111122,1111122,1111122' 
COMPS,ioos:station:USF.COMPS:TAR:1,2011-11-10T06:00:00Z,28.1560,-82.7580,7.0,1.5,360.0,,'1111122,1111122,1111122' 
COMPS,ioos:station:USF.COMPS:TAR:1,2011-11-10T08:00:00Z,28.1560,-82.7580,7.0,1.0,40.0,,'1111122,1111122,1111122' 
COMPS,ioos:station:USF.COMPS:TAR:1,2011-11-10T09:00:00Z,28.1560,-82.7580,7.0,0.5,40.0,,'1111122,1111122,1111122' 
COMPS,ioos:station:USF.COMPS:TAR:1,2011-11-10T10:00:00Z,28.1560,-82.7580,7.0,0.5,60.0,,'1111122,1111122,1111122' 
COMPS,ioos:station:USF.COMPS:TAR:1,2011-11-10T16:00:00Z,28.1560,-82.7580,7.0,2.1,330.0,,'1111122,1111122,1111122' 
COMPS,ioos:station:USF.COMPS:TAR:1,2011-11-10T17:00:00Z,28.1560,-82.7580,7.0,2.6,290.0,,'1111122,1111122,1111122' 
COMPS,ioos:station:USF.COMPS:TAR:1,2011-11-10T18:00:00Z,28.1560,-82.7580,7.0,2.6,280.0,,'1111122,1111122,1111122' 
COMPS,ioos:station:USF.COMPS:TAR:1,2011-11-10T19:00:00Z,28.1560,-82.7580,7.0,2.6,300.0,,'1111122,1111122,1111122' 
COMPS,ioos:station:USF.COMPS:TAR:1,2011-11-10T20:00:00Z,28.1560,-82.7580,7.0,2.6,300.0,,'1111122,1111122,1111122' 
COMPS,ioos:station:USF.COMPS:TAR:1,2011-11-10T21:00:00Z,28.1560,-82.7580,7.0,2.6,310.0,,'1111122,1111122,1111122' 
COMPS,ioos:station:USF.COMPS:TAR:1,2011-11-10T22:00:00Z,28.1560,-82.7580,7.0,4.1,340.0,,'1111122,1111122,1111122' 
COMPS,ioos:station:USF.COMPS:TAR:1,2011-11-10T23:00:00Z,28.1560,-82.7580,7.0,2.6,340.0,,'1111122,1111122,1111122' 
COMPS,ioos:station:USF.COMPS:TAR:1,2011-11-11T00:00:00Z,28.1560,-82.7580,7.0,2.6,330.0,,'1111122,1111122,1111122' 
COMPS,ioos:station:USF.COMPS:TAR:1,2011-11-11T01:00:00Z,28.1560,-82.7580,7.0,3.1,350.0,,'1111122,1111122,1111122' 
COMPS,ioos:station:USF.COMPS:TAR:1,2011-11-11T02:00:00Z,28.1560,-82.7580,7.0,3.6,330.0,,'1111122,1111122,1111122' 
COMPS,ioos:station:USF.COMPS:TAR:1,2011-11-11T03:00:00Z,28.1560,-82.7580,7.0,4.6,340.0,,'1111122,1111122,1111122' 
COMPS,ioos:station:USF.COMPS:TAR:1,2011-11-11T04:00:00Z,28.1560,-82.7580,7.0,6.2,340.0,,'1111122,1111122,1111122' 
COMPS,ioos:station:USF.COMPS:TAR:1,2011-11-11T05:00:00Z,28.1560,-82.7580,7.0,7.2,350.0,,'1111122,1111122,1111122' 
COMPS,ioos:station:USF.COMPS:TAR:1,2011-11-11T06:00:00Z,28.1560,-82.7580,7.0,6.2,360.0,,'1111122,1111122,1111122' 
COMPS,ioos:station:USF.COMPS:TAR:1,2011-11-11T07:00:00Z,28.1560,-82.7580,7.0,7.2,360.0,,'1111122,1111122,1111122' 
COMPS,ioos:station:USF.COMPS:TAR:1,2011-11-11T08:00:00Z,28.1560,-82.7580,7.0,7.2,10.0,,'1111122,1111122,1111122' 
COMPS,ioos:station:USF.COMPS:TAR:1,2011-11-11T09:00:00Z,28.1560,-82.7580,7.0,6.7,360.0,,'1111122,1111122,1111122' 
COMPS,ioos:station:USF.COMPS:TAR:1,2011-11-11T10:00:00Z,28.1560,-82.7580,7.0,7.2,10.0,,'1111122,1111122,1111122' 
COMPS,ioos:station:USF.COMPS:TAR:1,2011-11-11T11:00:00Z,28.1560,-82.7580,7.0,6.7,10.0,,'1111122,1111122,1111122' 
COMPS,ioos:station:USF.COMPS:TAR:1,2011-11-11T12:00:00Z,28.1560,-82.7580,7.0,5.7,20.0,,'1111122,1111122,1111122' 
COMPS,ioos:station:USF.COMPS:TAR:1,2011-11-11T13:00:00Z,28.1560,-82.7580,7.0,5.1,10.0,,'1111122,1111122,1111122' 
COMPS,ioos:station:USF.COMPS:TAR:1,2011-11-11T14:00:00Z,28.1560,-82.7580,7.0,6.2,20.0,,'1111122,1111122,1111122' 
COMPS,ioos:station:USF.COMPS:TAR:1,2011-11-11T15:00:00Z,28.1560,-82.7580,7.0,4.6,360.0,,'1111122,1111122,1111122' 
COMPS,ioos:station:USF.COMPS:TAR:1,2011-11-11T16:00:00Z,28.1560,-82.7580,7.0,3.6,360.0,,'1111122,1111122,1111122' 
COMPS,ioos:station:USF.COMPS:TAR:1,2011-11-11T17:00:00Z,28.1560,-82.7580,7.0,3.1,350.0,,'1111122,1111122,1111122' 
COMPS,ioos:station:USF.COMPS:TAR:1,2011-11-11T18:00:00Z,28.1560,-82.7580,7.0,4.1,350.0,,'1111122,1111122,1111122' 
COMPS,ioos:station:USF.COMPS:TAR:1,2011-11-11T19:00:00Z,28.1560,-82.7580,7.0,4.1,350.0,,'1111122,1111122,1111122' 
COMPS,ioos:station:USF.COMPS:TAR:1,2011-11-11T20:00:00Z,28.1560,-82.7580,7.0,4.1,350.0,,'1111122,1111122,1111122' 
COMPS,ioos:station:USF.COMPS:TAR:1,2011-11-11T21:00:00Z,28.1560,-82.7580,7.0,4.6,350.0,,'1111122,1111122,1111122' 
COMPS,ioos:station:USF.COMPS:TAR:1,2011-11-11T22:00:00Z,28.1560,-82.7580,7.0,3.6,10.0,,'1111122,1111122,1111122' 
COMPS,ioos:station:USF.COMPS:TAR:1,2011-11-11T23:00:00Z,28.1560,-82.7580,7.0,1.5,10.0,,'1111122,1111122,1111122' 
COMPS,ioos:station:USF.COMPS:TAR:1,2011-11-12T00:00:00Z,28.1560,-82.7580,7.0,0.5,40.0,,'1111122,1111122,1111122' 
COMPS,ioos:station:USF.COMPS:TAR:1,2011-11-12T01:00:00Z,28.1560,-82.7580,7.0,1.0,40.0,,'1111122,1111122,1111122' 
COMPS,ioos:station:USF.COMPS:TAR:1,2011-11-12T02:00:00Z,28.1560,-82.7580,7.0,1.0,40.0,,'1111122,1111122,1111122' 
COMPS,ioos:station:USF.COMPS:TAR:1,2011-11-12T03:00:00Z,28.1560,-82.7580,7.0,1.0,30.0,,'1111122,1111122,1111122' 
COMPS,ioos:station:USF.COMPS:TAR:1,2011-11-12T04:00:00Z,28.1560,-82.7580,7.0,0.5,50.0,,'1111122,1111122,1111122' 
COMPS,ioos:station:USF.COMPS:TAR:1,2011-11-12T05:00:00Z,28.1560,-82.7580,7.0,1.0,90.0,,'1111122,1111122,1111122' 
COMPS,ioos:station:USF.COMPS:TAR:1,2011-11-12T06:00:00Z,28.1560,-82.7580,7.0,0.5,50.0,,'1111122,1111122,1111122' 
COMPS,ioos:station:USF.COMPS:TAR:1,2011-11-12T07:00:00Z,28.1560,-82.7580,7.0,1.0,30.0,,'1111122,1111122,1111122' 
COMPS,ioos:station:USF.COMPS:TAR:1,2011-11-12T08:00:00Z,28.1560,-82.7580,7.0,0.5,40.0,,'1111122,1111122,1111122' 
COMPS,ioos:station:USF.COMPS:TAR:1,2011-11-12T09:00:00Z,28.1560,-82.7580,7.0,1.0,360.0,,'1111122,1111122,1111122' 
COMPS,ioos:station:USF.COMPS:TAR:1,2011-11-12T10:00:00Z,28.1560,-82.7580,7.0,1.0,40.0,,'1111122,1111122,1111122' 
COMPS,ioos:station:USF.COMPS:TAR:1,2011-11-12T11:00:00Z,28.1560,-82.7580,7.0,1.5,30.0,,'1111122,1111122,1111122' 
COMPS,ioos:station:USF.COMPS:TAR:1,2011-11-12T12:00:00Z,28.1560,-82.7580,7.0,1.5,40.0,,'1111122,1111122,1111122' 
COMPS,ioos:station:USF.COMPS:TAR:1,2011-11-12T13:00:00Z,28.1560,-82.7580,7.0,2.1,30.0,,'1111122,1111122,1111122' 
COMPS,ioos:station:USF.COMPS:TAR:1,2011-11-12T14:00:00Z,28.1560,-82.7580,7.0,1.5,50.0,,'1111122,1111122,1111122' 
COMPS,ioos:station:USF.COMPS:TAR:1,2011-11-12T15:00:00Z,28.1560,-82.7580,7.0,2.1,40.0,,'1111122,1111122,1111122' 
COMPS,ioos:station:USF.COMPS:TAR:1,2011-11-12T16:00:00Z,28.1560,-82.7580,7.0,2.6,40.0,,'1111122,1111122,1111122' 
COMPS,ioos:station:USF.COMPS:TAR:1,2011-11-12T17:00:00Z,28.1560,-82.7580,7.0,2.1,110.0,,'1111122,1111122,1111122' 
COMPS,ioos:station:USF.COMPS:TAR:1,2011-11-12T18:00:00Z,28.1560,-82.7580,7.0,2.6,130.0,,'1111122,1111122,1111122' 
COMPS,ioos:station:USF.COMPS:TAR:1,2011-11-12T19:00:00Z,28.1560,-82.7580,7.0,2.1,110.0,,'1111122,1111122,1111122' 
COMPS,ioos:station:USF.COMPS:TAR:1,2011-11-12T20:00:00Z,28.1560,-82.7580,7.0,2.1,130.0,,'1111122,1111122,1111122' 
COMPS,ioos:station:USF.COMPS:TAR:1,2011-11-12T21:00:00Z,28.1560,-82.7580,7.0,2.6,30.0,,'1111122,1111122,1111122' 
COMPS,ioos:station:USF.COMPS:TAR:1,2011-11-12T22:00:00Z,28.1560,-82.7580,7.0,0.5,50.0,,'1111122,1111122,1111122' 
COMPS,ioos:station:USF.COMPS:TAR:1,2011-11-12T23:00:00Z,28.1560,-82.7580,7.0,1.0,320.0,,'1111122,1111122,1111122' 
COMPS,ioos:station:USF.COMPS:TAR:1,2011-11-13T00:00:00Z,28.1560,-82.7580,7.0,1.0,350.0,,'1111122,1111122,1111122' 